Voltar ao catálogo

FENGYUN 1C DEB

AtivoSSO
NORAD 38135·DEBRIS·🇨🇳 China

Lançado May 10, 1999 de Taiyuan Satellite Launch Center

Loading…

Próximas Passagens (próximas 24 horas)

TLE

AtualizadoSource: Space-Track

Época: Sep 12, 2026, 09:54 UTC

1 38135U 99025EQG 26255.41278740  .00000538  00000-0  19109-3 0  9997
2 38135  98.6267 313.5195 0220073 353.5457   6.2898 14.25939111649405

Acompanhe FENGYUN 1C DEB em tempo real com AllMySat

Download on the App Store